Weather History for Graham, TX

Change the Weather History Date:

Sunday, February 2, 2014

  Actual Average (KMWL) Record (KMWL)
Temperature  
Mean Temperature 29 °F -  
Max Temperature 32 °F 55 °F 82 °F (2003)
Min Temperature 26 °F 33 °F 10 °F (2011)
Degree Days  
Heating Degree Days 36    
Moisture  
Dew Point 24 °F    
Average Humidity 84    
Maximum Humidity 94    
Minimum Humidity 73    
Precipitation  
Precipitation 0.26 in - - ()
Sea Level Pressure  
Sea Level Pressure 30.19 in    
Wind  
Wind Speed 14 mph (NNW)    
Max Wind Speed 20 mph    
Max Gust Speed 26 mph    
Visibility 8 miles    
Events Snow    
Averages and records for this station are not official NWS values.
T = Trace of Precipitation, MM = Missing Value Source: NWS Daily Summary

Daily Weather History Graph

Daily Weather History Graph

Search for Another Location

Airport:

Trip Planner

Search our weather history database for the weather conditions in past years. The results will help you decide how hot, cold, wet, or windy it might be!

Date:

Astronomy

Feb. 02, 2014 Rise Set
Actual Time 7:28 AM CST 6:07 PM CST
Civil Twilight 7:03 AM CST 6:33 PM CST
Nautical Twilight 6:33 AM CST 7:02 PM CST
Astronomical Twilight 6:04 AM CST 7:31 PM CST
Moon 9:08 AM CST (2/2) 9:38 PM CST (2/2)
Length of Visible Light 11h 30m
Length of Day
10h 38m
Waxing Crescent, 11% of the Moon is Illuminated
Feb 2
Waxing Crescent
Feb 6
First Quarter
Feb 14
Full
Feb 22
Last Quarter
Mar 1
New

Hourly Weather History & Observations

Time (CST) Temp. Windchill Dew Point Humidity Pressure Visibility Wind Dir Wind Speed Gust Speed Precip Events Conditions
12:15 AM 32.9 °F 21.6 °F 25.0 °F 73% 30.07 in 10.0 mi North 18.4 mph 24.2 mph N/A   Overcast
12:35 AM 32.4 °F 21.7 °F 25.3 °F 75% 30.06 in 10.0 mi North 16.1 mph 25.3 mph N/A   Overcast
12:55 AM 32.2 °F 21.8 °F 25.3 °F 76% 30.07 in 10.0 mi North 15.0 mph 20.7 mph N/A   Overcast
1:15 AM 32.2 °F 20.4 °F 25.2 °F 75% 30.06 in 10.0 mi North 19.6 mph 25.3 mph N/A   Overcast
1:35 AM 32.2 °F 21.4 °F 25.2 °F 75% 30.07 in 10.0 mi North 16.1 mph 23.0 mph N/A   Overcast
1:55 AM 32.2 °F 20.7 °F 25.2 °F 75% 30.07 in 10.0 mi North 18.4 mph 24.2 mph N/A   Overcast
2:15 AM 32.2 °F 23.2 °F 25.3 °F 76% 30.07 in 10.0 mi North 11.5 mph 19.6 mph N/A   Overcast
2:35 AM 32.0 °F 21.6 °F 25.5 °F 77% 30.06 in 10.0 mi North 15.0 mph 23.0 mph N/A   Overcast
2:55 AM 32.0 °F 21.6 °F 25.3 °F 76% 30.08 in 10.0 mi North 15.0 mph 21.9 mph N/A   Overcast
3:15 AM 32.0 °F 21.6 °F 24.8 °F 75% 30.08 in 10.0 mi North 15.0 mph 23.0 mph N/A   Overcast
3:35 AM 31.5 °F 20.1 °F 26.4 °F 82% 30.09 in 7.0 mi North 17.3 mph 23.0 mph N/A   Overcast
3:55 AM 31.5 °F 20.5 °F 25.7 °F 79% 30.10 in 10.0 mi North 16.1 mph 24.2 mph N/A   Overcast
4:15 AM 31.6 °F 20.4 °F 25.5 °F 78% 30.10 in 10.0 mi North 17.3 mph 21.9 mph N/A   Overcast
4:35 AM 31.8 °F 21.4 °F 25.0 °F 76% 30.10 in 10.0 mi North 15.0 mph 25.3 mph N/A   Overcast
4:55 AM 31.6 °F 19.7 °F 24.8 °F 76% 30.08 in 10.0 mi North 19.6 mph 24.2 mph N/A   Overcast
5:15 AM 31.1 °F 21.4 °F 25.0 °F 78% 30.09 in 10.0 mi North 12.7 mph 24.2 mph N/A   Overcast
5:35 AM 31.1 °F 21.9 °F 26.6 °F 83% 30.11 in 7.0 mi North 11.5 mph 25.3 mph N/A   Overcast
5:55 AM 30.7 °F 22.0 °F 26.6 °F 85% 30.15 in 7.0 mi NNW 10.4 mph 18.4 mph N/A   Overcast
6:15 AM 30.2 °F 20.8 °F 26.8 °F 87% 30.16 in 3.0 mi NNW 11.5 mph - N/A Snow Light Snow
6:35 AM 29.8 °F 20.3 °F 27.3 °F 90% 30.14 in 5.0 mi North 11.5 mph 21.9 mph N/A Snow Light Snow
6:55 AM 30.2 °F 19.3 °F 28.2 °F 92% 30.12 in 4.0 mi North 15.0 mph 19.6 mph 0.02 in Snow Light Snow
7:15 AM 30.7 °F 21.4 °F 28.8 °F 92% 30.15 in 2.5 mi North 11.5 mph - 0.03 in Snow Light Snow
7:35 AM 30.2 °F 21.9 °F 28.4 °F 93% 30.17 in 4.0 mi NNW 9.2 mph - 0.04 in   Overcast
7:55 AM 29.5 °F 20.4 °F 27.9 °F 94% 30.16 in 3.0 mi North 10.4 mph - 0.05 in Snow Light Snow
8:15 AM 29.3 °F 19.6 °F 27.9 °F 94% 30.20 in 3.0 mi NW 11.5 mph - 0.01 in Snow Light Snow
8:35 AM 29.1 °F 19.4 °F 27.5 °F 94% 30.20 in 3.0 mi North 11.5 mph - 0.02 in Snow Light Snow
8:55 AM 29.1 °F 20.0 °F 27.3 °F 93% 30.20 in 3.0 mi NNW 10.4 mph - 0.05 in Snow Light Snow
9:15 AM 28.8 °F 19.5 °F 27.1 °F 94% 30.21 in 1.5 mi NNW 10.4 mph - 0.06 in Snow Light Snow
9:35 AM 28.2 °F 17.7 °F 26.6 °F 94% 30.20 in 1.5 mi North 12.7 mph - 0.10 in Snow Light Snow
9:55 AM 27.9 °F 17.8 °F 26.2 °F 94% 30.22 in 1.5 mi NNW 11.5 mph - 0.12 in Snow Light Snow
10:15 AM 27.3 °F 15.6 °F 25.2 °F 92% 30.22 in 2.5 mi North 15.0 mph 19.6 mph N/A Snow Light Snow
10:35 AM 27.1 °F 14.5 °F 24.6 °F 90% 30.19 in 2.0 mi NNW 17.3 mph 21.9 mph 0.01 in Snow Light Snow
10:55 AM 27.0 °F 14.7 °F 24.8 °F 92% 30.23 in 4.0 mi NNW 16.1 mph 19.6 mph 0.02 in Snow Light Snow
11:15 AM 27.0 °F 14.3 °F 24.6 °F 91% 30.23 in 1.2 mi NNW 17.3 mph 21.9 mph N/A Snow Light Snow
11:35 AM 26.6 °F 13.8 °F 24.4 °F 92% 30.23 in 1.5 mi NW 17.3 mph 20.7 mph N/A Snow Light Snow
11:55 AM 26.6 °F 14.3 °F 23.9 °F 90% 30.23 in 5.0 mi NW 16.1 mph 20.7 mph N/A Snow Light Snow
12:15 PM 26.6 °F 14.3 °F 23.4 °F 88% 30.23 in 7.0 mi NNW 16.1 mph 23.0 mph N/A   Overcast
12:35 PM 27.1 °F 15.9 °F 23.5 °F 86% 30.21 in 10.0 mi NNW 13.8 mph 21.9 mph N/A   Overcast
12:55 PM 26.6 °F 14.3 °F 23.0 °F 86% 30.22 in 5.0 mi NNW 16.1 mph 20.7 mph N/A   Overcast
1:15 PM 26.6 °F 15.2 °F 23.0 °F 86% 30.20 in 7.0 mi NNW 13.8 mph - N/A   Overcast
1:35 PM 26.4 °F 14.5 °F 22.6 °F 86% 30.20 in 7.0 mi NNW 15.0 mph 19.6 mph N/A   Overcast
1:55 PM 26.6 °F 14.3 °F 23.2 °F 87% 30.18 in 7.0 mi NNW 16.1 mph 20.7 mph N/A   Overcast
2:15 PM 27.1 °F 14.9 °F 23.2 °F 85% 30.19 in 10.0 mi NNW 16.1 mph 21.9 mph N/A   Overcast
2:35 PM 26.6 °F 15.2 °F 22.8 °F 86% 30.19 in 10.0 mi NNW 13.8 mph - N/A   Overcast
2:55 PM 26.6 °F 14.3 °F 21.9 °F 82% 30.20 in 10.0 mi NNW 16.1 mph 21.9 mph N/A   Overcast
3:15 PM 26.6 °F 15.2 °F 22.6 °F 85% 30.21 in 10.0 mi NNW 13.8 mph - N/A   Overcast
3:35 PM 26.6 °F 15.2 °F 22.5 °F 84% 30.21 in 10.0 mi NNW 13.8 mph 18.4 mph N/A   Overcast
3:55 PM 26.6 °F 16.2 °F 22.8 °F 86% 30.22 in 10.0 mi NNW 11.5 mph - N/A   Overcast
4:15 PM 27.1 °F 17.5 °F 22.8 °F 84% 30.21 in 10.0 mi NNW 10.4 mph - N/A   Overcast
4:35 PM 27.3 °F 17.1 °F 22.8 °F 83% 30.21 in 10.0 mi NNW 11.5 mph 26.5 mph N/A   Overcast
4:55 PM 27.1 °F 14.9 °F 22.3 °F 82% 30.22 in 10.0 mi NNW 16.1 mph 24.2 mph N/A   Overcast
5:15 PM 27.3 °F 17.7 °F 22.8 °F 83% 30.22 in 10.0 mi NNW 10.4 mph - N/A   Overcast
5:35 PM 27.3 °F 17.1 °F 22.6 °F 83% 30.23 in 10.0 mi NNW 11.5 mph - N/A   Overcast
5:55 PM 27.0 °F 17.3 °F 22.1 °F 82% 30.24 in 10.0 mi NW 10.4 mph - N/A   Overcast
6:15 PM 26.8 °F 17.7 °F 21.2 °F 79% 30.24 in 10.0 mi NNW 9.2 mph - N/A   Overcast
6:35 PM 26.6 °F 17.5 °F 21.2 °F 80% 30.24 in 10.0 mi NNW 9.2 mph - N/A   Overcast
6:55 PM 26.6 °F 17.5 °F 21.0 °F 79% 30.25 in 10.0 mi NNW 9.2 mph - N/A   Overcast
7:15 PM 26.6 °F 19.1 °F 21.0 °F 79% 30.25 in 10.0 mi NNW 6.9 mph - N/A   Overcast
7:35 PM 26.6 °F 18.2 °F 20.8 °F 79% 30.25 in 10.0 mi NNW 8.1 mph - N/A   Overcast
7:55 PM 26.6 °F 18.2 °F 21.2 °F 80% 30.24 in 10.0 mi NNW 8.1 mph - N/A   Overcast
8:15 PM 26.4 °F 19.8 °F 21.4 °F 81% 30.24 in 10.0 mi NNW 5.8 mph - N/A   Overcast
8:35 PM 26.6 °F 21.2 °F 21.7 °F 82% 30.26 in 10.0 mi NNW 4.6 mph - N/A   Overcast
8:55 PM 26.6 °F 21.2 °F 21.9 °F 82% 30.27 in 10.0 mi NNW 4.6 mph - N/A   Overcast
9:15 PM 27.0 °F 21.6 °F 21.9 °F 81% 30.26 in 10.0 mi NNW 4.6 mph - N/A   Overcast
9:35 PM 27.0 °F 21.6 °F 22.1 °F 82% 30.26 in 10.0 mi NNW 4.6 mph - N/A   Overcast
9:55 PM 27.1 °F 20.7 °F 22.1 °F 81% 30.26 in 10.0 mi North 5.8 mph - N/A   Overcast
10:15 PM 27.3 °F 19.9 °F 22.3 °F 81% 30.26 in 10.0 mi North 6.9 mph - N/A   Overcast
10:35 PM 27.5 °F 22.2 °F 22.6 °F 82% 30.26 in 10.0 mi NNW 4.6 mph - N/A   Overcast
10:55 PM 27.5 °F 22.2 °F 22.3 °F 81% 30.27 in 10.0 mi NW 4.6 mph - N/A   Overcast
11:15 PM 27.5 °F 23.6 °F 22.5 °F 81% 30.27 in 10.0 mi NNW 3.5 mph - N/A   Overcast
11:35 PM 27.7 °F 22.4 °F 22.5 °F 81% 30.27 in 10.0 mi NW 4.6 mph - N/A   Overcast
11:55 PM 27.9 °F 22.6 °F 22.1 °F 79% 30.27 in 10.0 mi NW 4.6 mph - N/A   Overcast